User: anonymous   Login
Location: Milton
(43.5183°N, 79.8775°W)
Time: 11:55:10
(UTC+00:00)
Language:

CZ-6A DEB - Orbit

View from above orbital plane
View from above orbital plane
View from above satellite
View from above satellite

Ground track
Ground track

The orbit data is extracted from the following two-line orbital elements,

1 54508U 22151JL  23333.59734591  .00044859  00000-0  99528-2 0  9995
2 54508  98.6780 351.0826 0092012 238.6056 120.6115 14.54260171 54940
Epoch (UTC): 29 November 2023 14:20:10
Eccentricity: 0.0092012
inclination: 98.6780°
perigee height: 646 km
apogee height: 777 km
right ascension of ascending node: 351.0826°
argument of perigee: 238.6056°
revolutions per day: 14.54260171
mean anomaly at epoch: 120.6115°
orbit number at epoch: 5494

The dashed part of the orbit path shows where the satellite is in the earth's shadow,  

DLR